Regional Weather Roundup
Issued by NWS

Home | Current Version | Previous Version | Text Only | Print | Product List | Glossary Off
Versions: 1 2 3 4 5 6 7 8 9 10 11 12 13 14 15 16 17 18 19 20 21 22 23 24 25 26 27 28 29 30 31 32 33 34 35 36 37 38 39 40 41 42 43 44 45 46 47 48 49 50

000
ASUS43 KMKX 101320
RWRWI

WISCONSIN REGIONAL WEATHER ROUNDUP
NATIONAL WEATHER SERVICE MILWAUKEE/SULLIVAN WI
700 AM CST SUN DEC 10 2017

NOTE: "FAIR" INDICATES FEW OR NO CLOUDS BELOW 12,000 FEET WITH NO
SIGNIFICANT WEATHER AND/OR OBSTRUCTIONS TO VISIBILITY.

WIZ001-002-006>008-014>016-023>028-101400-
NORTHWEST WISCONSIN

CITY           SKY/WX    TMP DP  RH WIND       PRES   REMARKS
SUPERIOR ARPT  CLOUDY    23  17  75 N7        29.90R WCI  15
ASHLAND        CLOUDY    21  16  81 W5        29.87R WCI  15
HAYWARD        CLOUDY    20  15  81 CALM      29.84R
SIREN          CLOUDY    22  17  81 CALM      29.88R
CUMBERLAND     CLOUDY    21  18  86 NW8       29.85R WCI  12
RICE LAKE      CLOUDY    20  17  89 CALM      29.87R
CHETEK         CLOUDY    19  17  89 CALM      29.86S
LADYSMITH      CLOUDY    18  16  89 NW3       29.86R
EAU CLAIRE     CLOUDY    16  15  96 CALM      29.86R
MENOMONIE      CLOUDY    17  15  93 W3        29.86S
NEW RICHMOND   CLOUDY    19  18  95 N6        29.88R WCI  11
OSCEOLA        CLOUDY    20  20  97 CALM      29.92R
$$

WIZ003>005-009-010-017-018-101400-
NORTH CENTRAL WISCONSIN

CITY           SKY/WX    TMP DP  RH WIND       PRES   REMARKS
MANITOWISH WTR CLOUDY    16  16 100 W5        29.79R WCI   8
ARBOR VITAE    CLOUDY    18  16  91 NW3       29.79R
WOODRUFF       CLOUDY    18  16  91 NW3       29.79R
RHINELANDER    CLOUDY    15  14  95 W6        29.78R WCI   6
EAGLE RIVER    CLOUDY    14  11  88 NW6       29.77R WCI   5
LAND O LAKES   CLOUDY    16  14  93 NW5       29.78R FOG     WCI   9
PHILLIPS       CLOUDY    15  15  98 CALM      29.80R
TOMAHAWK       CLOUDY    16  14  93 W5        29.80S WCI   9
MEDFORD        CLOUDY    16  15  93 W5        29.80R WCI   9
MERRILL        CLOUDY    16  15  95 CALM      29.81S
$$

WIZ029-030-035-036-043>047-101400-
CENTRAL WISCONSIN

CITY           SKY/WX    TMP DP  RH WIND       PRES   REMARKS
WAUSAU         CLOUDY    17  15  92 NW6       29.81R WCI   9
MOSINEE        CLOUDY    18  16  93 W3        29.82R
MARSHFIELD     CLOUDY    19  15  84 NW5       29.81R WCI  12
STEVENS POINT  CLOUDY    17  15  90 W3        29.83R
WAUPACA        CLOUDY    21  15  76 SW3       29.84S
WAUTOMA        CLOUDY    20  15  81 SW3       29.84S
WISC RAPIDS    CLOUDY    20  15  81 W5        29.84R WCI  13
CAMP DOUGLAS   CLOUDY    23  17  77 W5        29.83R WCI  17
$$

WIZ011>013-019>022-031-037>040-048>050-101400-
NORTHEAST WISCONSIN

CITY           SKY/WX    TMP DP  RH WIND       PRES   REMARKS
ANTIGO         CLOUDY    14  13  95 W7        29.78S WCI   4
SHAWANO        CLOUDY    19  14  78 CALM      29.84S
OCONTO         CLOUDY    15  11  83 CALM      29.85F
STURGEON BAY   CLOUDY    17  13  84 SW6       29.85R WCI   9
GREEN BAY      CLOUDY    19  14  81 CALM      29.85S
MANITOWOC      MOCLDY    17  13  84 CALM      29.87R
APPLETON       MOCLDY    19  12  73 SW6       29.82R WCI  11
CLINTONVILLE   CLOUDY    18  12  79 W5        29.84S WCI  11
OSHKOSH        CLOUDY    21  15  78 SW8       29.84R WCI  11
$$

WIZ032>034-041-042-053>061-101400-
SOUTHWEST WISCONSIN

CITY           SKY/WX    TMP DP  RH WIND       PRES   REMARKS
LA CROSSE      CLOUDY    23  18  81 SW3       29.87R
SPARTA         CLOUDY    21  18  88 CALM      29.86R
VIROQUA        CLOUDY    19  17  93 SW3       29.82R
BOSCOBEL       CLOUDY    16  12  84 CALM      29.87R
PRAIRIE DU CHI CLOUDY    23  16  74 CALM      29.86S
PLATTEVILLE    CLEAR     18  16  92 SW7       29.85S WCI   8
$$

WIZ056-057-062-063-064-067-068-101400-
SOUTH CENTRAL WISCONSIN

CITY           SKY/WX    TMP DP  RH WIND       PRES   REMARKS
REEDSBURG      CLOUDY    21  16  79 SW5       29.84S WCI  15
BARABOO/DELLS  CLOUDY    21  15  78 W6        29.84R WCI  14
LONE ROCK      CLOUDY    16  13  88 CALM      29.87R
MINERAL POINT  CLOUDY    19  19 100 S6        29.82S WCI  11
MADISON        CLOUDY    22  15  75 SW6       29.85R WCI  14
MIDDLETON      CLOUDY    21  16  79 SW5       29.85S WCI  15
WATERTOWN      PTCLDY    19  16  86 SW5       29.86S WCI  12
MONROE         CLOUDY    21  16  79 S12       29.83F WCI   9
JANESVILLE     MOCLDY    23  16  74 S8        29.86F WCI  14
$$

WIZ051-052-058>065-066-070>072-101400-
SOUTHEAST WISCONSIN

CITY           SKY/WX    TMP DP  RH WIND       PRES   REMARKS
MILWAUKEE      CLOUDY    23  16  74 SW10      29.87F WCI  12
WAUKESHA       MOCLDY    19  12  73 SW7       29.87F WCI  10
MILWAUKEE/TIMM CLOUDY    21  14  73 SW8       29.87F WCI  12
RACINE         CLOUDY    23  16  74 SW8       29.90F WCI  14
BURLINGTON     CLOUDY    31  29  89 S8        29.87F WCI  24
KENOSHA        MOCLDY    24  15  68 SW9       29.89F WCI  14
FOND DU LAC    CLOUDY    22  14  71 SW7       29.85R WCI  13
SHEBOYGAN      CLOUDY    21  15  78 SW13      29.85S WCI   9
WEST BEND      CLOUDY    21  18  86 SW7       29.85S WCI  13
JUNEAU         CLOUDY    20  15  82 S8        29.86S WCI  10
$$

LSZ147-162-101400-
LAKE SUPERIOR

STATION/POSITION TIME  TEMP    WIND        PRES    WAVE
                       AIR SEA DIR/SP/G            HT/PER
                 (UTC) (F)     (DEG/KT/KT) (MB)    (FT/S)
DEVILS ISLAND    1300   22     350/ 17/ 19 1012.8R
SAXON HARBOR     1240   21                 1010.5R
$$

LMZ867-665-643>646-101400-
LAKE MICHIGAN

STATION/POSITION TIME  TEMP    WIND        PRES    WAVE
                       AIR SEA DIR/SP/G            HT/PER
                 (UTC) (F)     (DEG/KT/KT) (MB)    (FT/S)
NORTHPORT PIER   1240   21     270/  8/ 12 1009.8F
KEWAUNEE LAKESHO 1254   19     250/  3/  4 1010.6R
SHEBOYGAN LAKESH 1300   22     250/  8/ 10 1012.2R
PORT WASHINGTON  1230   22     250/  6/ 11 1012.5S
MILWAUKEE LAKESH 1300   24     240/ 12/ 13   N/A
KENOSHA   LAKESH 1300   24     220/  7/ 11 1012.5
$$

TC  - TEMPERATURE IN CELSIUS
VSB - VISIBILITY IN STATUTE MILES
WCI - WIND CHILL INDEX
HX  - HEAT INDEX





USA.gov is the U.S. government's official web portal to all federal, state and local government web resources and services.